Flag for Slovakia Weather past 2 weeks in Bratislava, Slovakia

Now
36 °F

Sleet. Cloudy.


Feels Like: 36 °F
Forecast: 37 / 50 °F
Wind: 1 mph from East

Location: Bratislava Ivanka

Current Time: Feb 27, 2015 at 7:16:44 AM

Latest Report: Feb 27, 2015 at 7:00 AM


Visibility: 2 mi

Pressure: 29.95 "Hg

Humidity: 87%

Dew point: 32 °F

Location of BratislavaLocation

Historic Weather in Bratislava — Graph

°F

Bratislava temperature yesterday

Maximum temperature yesterday: 43 °F (at 11:00 AM)
Minimum temperature yesterday: 39 °F (at 2:30 AM)
Average temperature yesterday: 42 °F

Past Weeks' High & Low Weather Summary

 TemperatureHumidityPressure
High54 °F (Feb 21, 2:00 PM)100% (Feb 23, 12:00 PM)30.77 "Hg (Feb 23, 12:00 PM)
Low23 °F (Feb 20, 6:00 AM)38% (Feb 21, 2:00 PM)29.59 "Hg (Feb 21, 3:30 PM)
Average37 °F77%30.11 "Hg
* Reported Feb 12 6:00 AM — Feb 27 6:00 AM, Bratislava, Weather by CustomWeather, © 2015

Note: Actual official high and low records may vary slightly from our data, if they occured in-between our weather recording intervals... More about our weather records

Advertising

Bratislava weather history for previous 24 hours

 ConditionsComfort  
Time TempWeatherWind HumidityBarometerVisibility
6:00 AM
Fri, Feb 27
37 °FPassing clouds.No wind93%29.95 "Hg6 mi
5:30 AM37 °FOvercast.2 mph93%29.95 "Hg6 mi
4:30 AM39 °FOvercast.3 mph87%29.95 "Hg6 mi
4:00 AM37 °FOvercast.1 mph93%29.98 "Hg6 mi
3:30 AM37 °FPassing clouds.2 mph93%29.98 "Hg6 mi
3:00 AM37 °FPassing clouds.1 mph87%29.98 "Hg4 mi
2:30 AM37 °FPartly cloudy.1 mph81%29.98 "Hg6 mi
2:00 AM39 °FPartly cloudy.2 mph87%29.98 "HgN/A
1:30 AM39 °FPassing clouds.No wind87%30.01 "HgN/A
1:00 AM39 °FPartly cloudy.No wind87%30.01 "HgN/A
12:30 AM41 °FPassing clouds.1 mph81%30.01 "HgN/A
12:00 AM41 °FPassing clouds.3 mph81%30.01 "HgN/A
11:30 PM
Thu, Feb 26
41 °FPassing clouds.2 mph81%30.01 "HgN/A
11:00 PM41 °FOvercast.3 mph81%30.04 "HgN/A
10:00 PM41 °FOvercast.3 mph81%30.04 "HgN/A
9:30 PM41 °FPassing clouds.5 mph81%30.07 "HgN/A
9:00 PM43 °FPassing clouds.3 mph76%30.07 "HgN/A
8:30 PM41 °FPartly cloudy.No wind81%30.07 "HgN/A
8:00 PM41 °FPassing clouds.3 mph76%30.07 "HgN/A
7:30 PM41 °FPassing clouds.5 mph81%30.07 "HgN/A
7:00 PM41 °FPartly cloudy.6 mph76%30.07 "HgN/A
6:30 PM41 °FPartly cloudy.7 mph76%30.07 "HgN/A
6:00 PM43 °FPartly cloudy.7 mph76%30.07 "HgN/A
5:30 PM43 °FPartly cloudy.8 mph76%30.07 "HgN/A
5:00 PM43 °FPartly sunny.8 mph76%30.07 "HgN/A
4:30 PM43 °FPartly sunny.9 mph76%30.07 "HgN/A
4:00 PM43 °FPartly sunny.10 mph76%30.07 "HgN/A
3:30 PM43 °FPartly sunny.12 mph71%30.07 "HgN/A
3:00 PM43 °FPartly sunny.15 mph71%30.07 "HgN/A
2:30 PM43 °FPartly sunny.14 mph76%30.07 "HgN/A
2:00 PM43 °FPartly sunny.16 mph71%30.09 "HgN/A
1:30 PM43 °FPartly sunny.14 mph76%30.09 "HgN/A
1:00 PM43 °FBroken clouds.13 mph76%30.09 "HgN/A
12:30 PM43 °FBroken clouds.13 mph76%30.09 "HgN/A
12:00 PM43 °FPartly sunny.15 mph76%30.09 "HgN/A
11:30 AM43 °FPartly sunny.16 mph76%30.09 "HgN/A
11:00 AM43 °FPartly sunny.15 mph76%30.09 "HgN/A
10:30 AM41 °FPartly sunny.16 mph76%30.09 "HgN/A
10:00 AM41 °FPartly sunny.17 mph76%30.09 "HgN/A
9:30 AM41 °FBroken clouds.13 mph76%30.09 "HgN/A
9:00 AM41 °FPartly sunny.14 mph76%30.09 "HgN/A
8:30 AM41 °FPartly sunny.15 mph76%30.09 "HgN/A
8:00 AM41 °FPartly sunny.16 mph76%30.09 "HgN/A
7:30 AM41 °FPartly sunny.16 mph76%30.09 "HgN/A
7:00 AM39 °FPartly sunny.2 mph81%30.09 "HgN/A
Weather by CustomWeather, © 2015

See weather overviewHow to use our weather pages